This is the latest recevied weather packets stored in our database for station/object WA4OPQ-3. If no packets are shown the sender has not sent any weather packets the latest 10 day(s).
| Time | Temp. | Humidity | Pressure | Rain* | Wind** | Luminosity | Snow |
|---|---|---|---|---|---|---|---|
| 1777584513 | 17.22° C | 49% | 1014 hPa | 0 mm | - | 255 W/m² | - |
| 1777583907 | 17.22° C | 51% | 1014 hPa | 0 mm | - | 260 W/m² | - |
| 1777583301 | 17.78° C | 49% | 1014.3 hPa | 0 mm | - | 256 W/m² | - |
| 1777582697 | 17.22° C | 51% | 1014.4 hPa | 0 mm | - | 309 W/m² | - |
| 1777582092 | 17.78° C | 48% | 1014.3 hPa | 0 mm | - | 251 W/m² | - |
| 1777581487 | 17.78° C | 48% | 1014.7 hPa | 0 mm | - | 333 W/m² | - |
| 1777580881 | 17.78° C | 51% | 1014.6 hPa | 0 mm | - | 344 W/m² | - |
| 1777580277 | 17.78° C | 49% | 1014.6 hPa | 0 mm | - | 362 W/m² | - |
| 1777579670 | 17.22° C | 51% | 1014.9 hPa | 0 mm | - | 337 W/m² | - |
| 1777579065 | 17.22° C | 47% | 1015 hPa | 0 mm | - | 342 W/m² | - |
| 1777578460 | 17.22° C | 51% | 1014.9 hPa | 0 mm | - | 369 W/m² | - |
| 1777577854 | 17.22° C | 48% | 1015 hPa | 0 mm | - | 356 W/m² | - |
| 1777577248 | 17.22° C | 50% | 1015 hPa | 0 mm | - | 416 W/m² | - |
| 1777576643 | 17.78° C | 47% | 1015.1 hPa | 0 mm | - | 372 W/m² | - |
| 1777576039 | 18.33° C | 47% | 1015.2 hPa | 0 mm | - | 425 W/m² | - |
| 1777575435 | 17.78° C | 48% | 1015.2 hPa | 0 mm | - | 437 W/m² | - |
| 1777574829 | 17.78° C | 48% | 1015.1 hPa | 0 mm | - | 473 W/m² | - |
| 1777574224 | 17.78° C | 49% | 1015 hPa | 0 mm | - | 536 W/m² | - |
| 1777573620 | 17.78° C | 44% | 1015.2 hPa | 0 mm | - | 516 W/m² | - |
| 1777573016 | 17.78° C | 48% | 1014.9 hPa | 0 mm | - | 515 W/m² | - |
| 1777572409 | 17.78° C | 45% | 1015.2 hPa | 0 mm | - | 559 W/m² | - |
| 1777571805 | 17.78° C | 47% | 1015.2 hPa | 0 mm | - | 634 W/m² | - |
| 1777571199 | 17.78° C | 49% | 1015.8 hPa | 0 mm | - | 573 W/m² | - |
| 1777570594 | 17.22° C | 51% | 1015.6 hPa | 0 mm | - | 595 W/m² | - |
| 1777569989 | 16.67° C | 49% | 1015.5 hPa | 0 mm | - | 509 W/m² | - |
* Rain latest hour (hover to see other rain measurements)
** Current wind speed in m/s (hover to see current wind gust speed)